User: anonymous   Login
Location: Noordwijk
(52.2400°N, 4.4500°E)
Time: 03:15:18
(UTC+00:00)
Language:

AO-7 - Orbit

View from above orbital plane
View from above orbital plane
View from above satellite
View from above satellite

Ground track
Ground track

The orbit data is extracted from the following two-line orbital elements,

1 07530U 74089B   24057.60021906 -.00000041  00000-0  34829-4 0  9991
2 07530 101.9740  51.2230 0011954 298.1889 177.3762 12.53672609255058
Epoch (UTC): 26 February 2024 14:24:18
Eccentricity: 0.0011954
inclination: 101.9740°
perigee height: 1440 km
apogee height: 1458 km
right ascension of ascending node: 51.2230°
argument of perigee: 298.1889°
revolutions per day: 12.53672609
mean anomaly at epoch: 177.3762°
orbit number at epoch: 25505

The dashed part of the orbit path shows where the satellite is in the earth's shadow,  

DLR